カタログに戻る

STARLINK-32179

運用中通信VLEO
NORAD 60734·PAYLOAD·🇺🇸 United States

打ち上げ Aug 28, 2024 から Cape Canaveral Space Force Station

Loading…

次のパス (今後24時間)

TLE

最新Source: CelesTrak SupGP

元期: Sep 14, 2026, 20:46 UTC

1 60734C 24152Q   26257.86576389 -.00017358  00000+0 -51319-3 0  2572
2 60734  53.1569 107.6931 0001356  78.5899 268.0010 15.34378235    18

AllMySatでSTARLINK-32179をリアルタイム追跡

Download on the App Store